User: anonymous
Location: Monroe
(41.9160°N, 83.3980°W)
Time: 11:32:26
(UTC-04:00)
Language:

ISS - Orbit

View from above orbital plane
View from above orbital plane
View from above satellite
View from above satellite

Ground track
Ground track

The orbit data is extracted from the following two-line orbital elements,

1 25544U 98067A   14260.41419823  .00018301  00000-0  32364-3 0   990
2 25544 051.6468 002.4717 0002313 110.2063 006.2703 15.50372445905632
Epoch (UTC): 17 September 2014 09:56:26
Eccentricity: 0.0002313
inclination: 51.6468°
perigee height: 414 km
apogee height: 417 km
right ascension of ascending node: 2.4717°
argument of perigee: 110.2063°
revolutions per day: 15.50372445
mean anomaly at epoch: 6.2703°
orbit number at epoch: 90563

The dashed part of the orbit path shows where the satellite is in the earth's shadow,  

DLR